New Bedford, MA

3:03 PM EST on February 08, 2016 (GMT -0500)
New Bedford Regional

Weather History for KEWB - January, 2012

Change the Weather History Date:

Friday, January 13, 2012

  Actual Average Record
Temperature  
Mean Temperature 42 °F -  
Max Temperature 55 °F 36 °F - (-1)
Min Temperature 28 °F 20 °F - (-1)
Degree Days  
Heating Degree Days 22    
Moisture  
Dew Point 32 °F    
Average Humidity 79    
Maximum Humidity 100    
Minimum Humidity 45    
Precipitation  
Precipitation 0.02 in - - ()
Sea Level Pressure  
Sea Level Pressure 29.48 in    
Wind  
Wind Speed 7 mph (SSW)    
Max Wind Speed 26 mph    
Max Gust Speed 46 mph    
Visibility 6 miles    
Events Fog , Rain    
Averages and records for this station are not official NWS values.
T = Trace of Precipitation, MM = Missing Value Source: NWS Daily Summary

Daily Weather History Graph

Daily Weather History Graph

Search for Another Location

Airport or City:

Trip Planner

Search our weather history database for the weather conditions in past years. The results will help you decide how hot, cold, wet, or windy it might be!

Date:

Astronomy

Jan. 13, 2012 Rise Set
Actual Time 7:09 AM EST 4:35 PM EST
Civil Twilight 6:38 AM EST 5:06 PM EST
Nautical Twilight 6:04 AM EST 5:40 PM EST
Astronomical Twilight 5:30 AM EST 6:14 PM EST
Moon 9:50 PM EST (1/13) 9:17 AM EST (1/13)
Length of Visible Light 10h 27m
Length of Day
9h 26m
Waning Gibbous, 79% of the Moon is Illuminated
Jan 13
Waning Gibbous
Jan 16
Last Quarter
Jan 23
New
Jan 30
First Quarter
Feb 7
Full

Hourly Weather History & Observations

Time (EST) Temp. Windchill Dew Point Humidity Pressure Visibility Wind Dir Wind Speed Gust Speed Precip Events Conditions
12:00 AM 37.4 °F - 35.6 °F 93% 29.57 in 4.0 mi Calm Calm - N/A   Overcast
12:28 AM 37.4 °F - 35.6 °F 93% 29.56 in 4.0 mi Calm Calm - N/A   Overcast
12:53 AM 37.9 °F 35.5 °F 36.0 °F 93% 29.56 in 5.0 mi NNE 3.5 mph - N/A   Overcast
1:31 AM 37.4 °F - 35.6 °F 93% 29.55 in 6.0 mi Calm Calm - N/A   Overcast
1:49 AM 37.4 °F 34.9 °F 35.6 °F 93% 29.55 in 5.0 mi NE 3.5 mph - N/A   Overcast
1:53 AM 37.9 °F - 36.0 °F 93% 29.56 in 5.0 mi Calm Calm - N/A   Overcast
2:40 AM 37.4 °F - 37.4 °F 100% 29.54 in 2.0 mi Calm Calm - N/A   Overcast
2:53 AM 37.9 °F - 37.0 °F 97% 29.55 in 2.0 mi Calm Calm - N/A   Overcast
3:00 AM 37.4 °F - 37.4 °F 100% 29.54 in 1.8 mi Calm Calm - N/A   Overcast
3:24 AM 37.4 °F 33.8 °F 37.4 °F 100% 29.53 in 0.5 mi NE 4.6 mph - N/A Fog Fog
3:46 AM 37.4 °F 34.9 °F 37.4 °F 100% 29.52 in 0.2 mi ENE 3.5 mph - N/A Fog Fog
3:53 AM 37.9 °F - 37.0 °F 97% 29.52 in 0.2 mi Calm Calm - N/A Fog Fog
4:08 AM 39.2 °F 37.0 °F 37.4 °F 93% 29.51 in 0.2 mi East 3.5 mph - N/A Fog Fog
4:15 AM 39.2 °F - 37.4 °F 93% 29.51 in 0.2 mi Calm Calm - N/A Fog Fog
4:40 AM 39.2 °F 33.6 °F 37.4 °F 93% 29.50 in 0.8 mi ESE 8.1 mph - N/A   Mist
4:53 AM 39.9 °F 36.7 °F 39.0 °F 97% 29.50 in 1.8 mi ESE 4.6 mph - N/A   Overcast
5:27 AM 39.2 °F 37.0 °F 39.2 °F 100% 29.49 in 2.5 mi ESE 3.5 mph - N/A   Overcast
5:34 AM 41.0 °F 38.0 °F 39.2 °F 93% 29.48 in 4.0 mi East 4.6 mph - N/A   Overcast
5:53 AM 41.0 °F 34.3 °F 39.9 °F 96% 29.47 in 5.0 mi ESE 11.5 mph - N/A   Overcast
6:53 AM 44.1 °F 39.5 °F 42.1 °F 93% 29.42 in 3.0 mi ESE 8.1 mph - N/A   Overcast
7:53 AM 46.0 °F 41.0 °F 45.0 °F 96% 29.37 in 3.0 mi SE 10.4 mph - 0.01 in Rain Light Rain
8:53 AM 50.0 °F - 48.0 °F 93% 29.33 in 5.0 mi SSE 16.1 mph 23.0 mph 0.01 in   Overcast
9:51 AM 55.4 °F - 48.2 °F 77% 29.31 in 9.0 mi SSW 23.0 mph 32.2 mph N/A   Scattered Clouds
9:53 AM 55.0 °F - 46.9 °F 74% 29.31 in 9.0 mi SSW 25.3 mph 32.2 mph N/A   Scattered Clouds
10:53 AM 54.0 °F - 43.0 °F 66% 29.28 in 10.0 mi SW 21.9 mph 34.5 mph 0.00 in   Mostly Cloudy
11:53 AM 50.0 °F - 35.1 °F 57% 29.26 in 10.0 mi SW 26.5 mph 46.0 mph N/A   Partly Cloudy
12:53 PM 46.9 °F - 28.0 °F 48% 29.26 in 10.0 mi SW 21.9 mph 41.4 mph N/A   Clear
1:53 PM 44.1 °F 35.2 °F 30.0 °F 58% 29.28 in 10.0 mi SW 23.0 mph 43.7 mph N/A   Mostly Cloudy
2:53 PM 41.0 °F 31.4 °F 27.0 °F 57% 29.32 in 10.0 mi WSW 21.9 mph 33.4 mph N/A   Overcast
3:53 PM 36.0 °F 23.9 °F 19.0 °F 50% 29.38 in 10.0 mi WSW 25.3 mph 44.9 mph N/A   Overcast
4:53 PM 34.0 °F 22.7 °F 16.0 °F 48% 29.43 in 10.0 mi WSW 19.6 mph 36.8 mph N/A   Overcast
5:53 PM 33.1 °F 20.1 °F 15.1 °F 48% 29.49 in 10.0 mi WSW 25.3 mph 35.7 mph N/A   Overcast
6:53 PM 32.0 °F 18.9 °F 12.9 °F 45% 29.54 in 10.0 mi West 24.2 mph 33.4 mph N/A   Mostly Cloudy
7:53 PM 30.9 °F 18.1 °F 12.0 °F 46% 29.57 in 10.0 mi WSW 21.9 mph 34.5 mph N/A   Clear
8:53 PM 30.0 °F 20.0 °F 12.0 °F 47% 29.59 in 10.0 mi WSW 12.7 mph 25.3 mph N/A   Clear
9:53 PM 30.0 °F 17.9 °F 14.0 °F 51% 29.62 in 10.0 mi WSW 18.4 mph 23.0 mph N/A   Clear
10:53 PM 30.0 °F 19.5 °F 15.1 °F 54% 29.64 in 10.0 mi WSW 13.8 mph 20.7 mph N/A   Clear
11:53 PM 28.9 °F 18.2 °F 16.0 °F 58% 29.66 in 10.0 mi WSW 13.8 mph 23.0 mph N/A   Clear